Orbital Elements at Epoch 2459200.5 (2020-Dec-17.0) TDB
Reference: JPL 16 (heliocentric ecliptic J2000)
Element | Value | Uncertainty (1-sigma) | Units |
e | .1508922359924613 | 4.397e-08 | |
a | 2.28980273745288 | 1.0481e-08 | au |
q | 1.944289282416956 | 1.0089e-07 | au |
i | 5.549935252708712 | 4.3085e-06 | deg |
node | 7.514471406995763 | 4.0576e-05 | deg |
peri | 138.5109943955731 | 4.2868e-05 | deg |
M | 40.2270927070137 | 1.267e-05 | deg |
tp | 2459059.079724869611 (2020-Jul-28.57972487) | 4.4223e-05 | TDB |
period | 1265.597278375118 3.47 | 8.6892e-06 2.379e-08 | d yr |
n | .2844506749115316 | 1.953e-09 | deg/d |
Q | 2.635316192488804 | 1.2062e-08 | au |
|
| | Orbit Determination Parameters
Additional Information
|